Location: Bazugues
(43.4465°N, 0.3432°E)
Time: 06:39:20
(UTC+00:00)

SL-4 R/B - Pass Details

Date: 12 January 2026
Orbit: 384 x 519 km, 51.6° (Epoch: 10 February)

Event Time Altitude Azimuth Distance (km) Brightness Sun altitude
Rises 18:41:21 0° 297° (WNW) 2,635 6.3 -20.7°
Reaches altitude 10° 18:43:42 10° 289° (WNW) 1,732 5.4 -21.1°
Maximum altitude 18:47:18 35° 223° (SW) 814 3.3 -21.7°
Enters shadow 18:49:12 22° 171° (S) 1,131 3.6 -22.1°
